CAPE
0 0 0 0 0 0 0 0 0 0 0 0 0 0 0 0 0 0 0 0 0 0 0 0 0 1 842 2346 2993 3428 3071 2571 1904 1715 1607 1746 1790 1607 1609 1538 1634 1629 1547 1682
0 0 0 0 0 0 0 0 0 0 0 0 0 0 0 0 0 0 0 0 0 0 0 0 0 0 607 1461 2543 3145 3252 2151 1672 1625 1821 1674 1711 1405 1447 1341 1493 1600 1633 1603
11 0 0 0 0 2 0 0 0 0 0 0 0 0 0 0 0 0 0 0 0 0 0 0 0 0 45 762 1707 2571 2981 1972 1661 1765 1495 1439 1531 1520 1402 1289 1180 1358 1377 1438
19 0 20 0 1 2 0 0 0 0 0 0 0 0 0 0 0 0 0 0 0 0 0 0 0 0 0 372 1090 1924 2591 1830 1380 1291 1425 1760 1530 1361 1294 1294 1117 1066 987 1072
0 0 0 17 0 7 0 5 0 0 0 0 0 0 0 0 0 0 0 0 0 0 0 0 0 0 0 0 653 1843 2264 1258 944 1056 1537 1811 1718 1541 1497 1319 1492 1358 1202 1266
7 12 17 0 9 36 25 29 23 12 0 0 0 0 0 0 0 0 0 0 0 0 0 0 0 0 0 42 986 1998 1121 933 788 1223 1569 1623 1686 1498 1263 1247 1158 1279 1181 1193
25 6 6 22 21 62 34 13 4 17 5 0 0 0 0 0 0 0 0 0 0 0 0 0 0 0 2 1003 1413 1210 844 809 1138 1539 1179 1265 1431 1552 1670 1601 1386 1294 1208 1038
18 26 6 0 33 25 33 13 11 1 0 0 0 0 0 0 0 0 0 0 0 0 0 0 0 0 877 818 678 617 788 865 849 704 745 930 1326 1118 841 832 1129 785 869 448
15 17 11 0 31 72 49 28 8 20 0 2 0 0 3 0 0 0 0 0 0 0 0 0 76 740 546 584 435 435 500 417 267 227 135 161 162 147 71 55 86 61 42 42
18 21 25 10 76 95 18 1 22 16 24 9 2 0 0 0 0 0 101 57 29 55 92 78 72 105 240 353 509 593 541 269 99 31 6 0 0 0 0 0 0 0 0 0
3 0 60 5 33 18 62 6 7 13 25 13 8 14 26 0 0 5 2 5 4 2 2 3 3 3 55 216 164 77 11 1 0 0 0 0 0 0 0 0 0 0 0 0
2 3 0 0 149 87 38 28 6 17 27 24 22 110 182 120 16 3 2 3 5 5 6 4 2 5 17 1 0 0 0 0 0 0 0 0 0 0 0 0 0 0 0 0
2 2 0 2 9 4 77 46 3 31 39 38 26 105 93 1 3 3 4 6 6 5 1 1 1 3 3 0 0 0 0 0 0 0 0 0 0 0 0 0 0 0 0 0
4 0 0 0 0 0 9 84 19 22 36 31 65 19 162 3 0 4 6 6 3 2 0 0 0 0 0 0 0 0 0 0 0 0 0 0 0 0 0 0 0 0 0 0
2 0 4 112 0 0 37 83 29 13 6 12 186 93 76 3 2 5 6 4 2 1 0 1 0 0 0 0 0 0 0 0 0 0 0 0 0 0 0 0 0 0 0 0
2 0 0 37 8 10 24 62 16 40 0 51 202 246 47 6 3 3 3 3 2 1 0 0 0 0 0 0 0 0 0 0 0 0 0 0 0 0 0 0 0 0 0 0
1 2 5 6 6 2 0 16 5 11 1 224 227 22 2 4 5 6 4 4 4 2 0 0 0 0 0 0 0 0 0 0 0 0 0 0 0 0 0 0 0 0 0 1
1 1 3 0 3 10 0 10 8 1 26 147 13 4 2 2 3 4 6 4 2 1 0 0 0 0 0 0 0 0 0 0 0 0 0 0 0 0 0 0 0 1 1 2
2 2 0 0 14 6 33 25 0 2 9 114 8 3 3 0 0 1 0 0 0 0 0 0 0 0 0 0 0 0 0 0 0 0 0 0 0 0 0 1 2 2 1 2
1 2 0 177 26 31 78 198 108 15 9 92 26 0 0 0 0 5 0 0 0 0 0 0 0 0 0 0 0 0 0 0 0 0 0 0 0 0 0 1 2 3 4 0
0 0 34 89 80 122 224 256 249 11 61 132 2 1 0 5 0 1 0 0 0 0 0 0 0 0 0 0 0 0 0 0 0 0 0 0 0 0 2 1 2 2 1 1
0 46 63 140 133 27 19 183 57 206 52 1 2 0 0 1 0 0 0 0 0 0 0 0 0 0 0 0 0 0 0 0 0 0 0 1 2 1 1 2 3 2 0 0
0 6 1 1 1 3 123 252 242 13 0 0 0 0 0 0 0 0 0 0 0 0 0 0 0 0 0 0 0 0 0 0 1 1 1 1 1 1 2 1 2 0 0 3
6 6 2 2 1 4 47 123 33 2 1 0 0 0 0 0 0 0 0 0 0 0 0 0 0 0 0 0 0 0 0 1 1 2 1 0 0 1 0 1 1 2 1 2
3 0 3 3 2 1 4 3 2 0 0 0 0 0 0 0 0 0 0 0 0 0 0 0 0 0 0 0 0 0 0 3 1 1 1 0 0 0 0 2 1 2 2 2
2 3 2 3 2 0 2 2 0 1 2 1 1 0 0 0 0 0 0 0 0 0 0 0 0 0 0 0 0 0 0 0 1 2 1 0 1 0 1 1 1 0 0 0
CIN
0 0 0 0 0 0 0 0 0 0 0 0 0 0 0 0 0 0 0 0 0 0 0 0 0 -0 -90 -24 -9 -6 -26 -73 -123 -131 -112 -71 -55 -57 -41 -15 -0 -1 -1 -1
0 0 0 0 0 0 0 0 0 0 0 0 0 0 0 0 0 0 0 0 0 0 0 0 0 0 -118 -101 -55 -19 -20 -118 -174 -145 -96 -83 -46 -75 -35 -21 -4 -2 -1 -1
-1 0 0 0 -0 -2 0 0 0 0 0 0 0 0 0 0 0 0 0 0 0 0 0 0 0 0 -92 -126 -131 -81 -41 -140 -142 -90 -115 -96 -58 -37 -31 -47 -40 -23 -15 -7
-3 0 -4 -3 -3 -4 0 0 0 0 0 0 0 0 0 0 0 0 0 0 0 0 0 0 0 0 0 -123 -118 -89 -43 -123 -143 -152 -118 -54 -35 -18 -12 -11 -13 -36 -39 -26
0 0 0 -2 0 -4 -0 -4 0 -0 0 0 0 0 0 0 0 0 0 0 0 0 0 0 0 0 0 0 -90 -75 -46 -173 -212 -163 -67 -34 -14 -14 -6 -3 -2 -7 -21 -8
-11 -10 -9 0 -5 -5 -5 -5 -4 -3 0 -2 0 0 0 0 0 0 0 0 0 0 0 0 0 0 0 -63 -70 -26 -185 -201 -225 -124 -67 -36 -30 -20 -5 -4 -6 -7 -16 -13
-2 -7 -8 -20 -4 -5 -12 -4 -8 -6 -6 0 0 0 0 0 0 0 0 0 0 0 0 0 0 0 -22 -57 -83 -134 -213 -215 -128 -66 -90 -66 -30 -8 -0 -0 -1 -1 -7 -23
-4 -6 -35 -0 -2 -3 -3 -4 -6 -0 0 0 0 0 0 0 0 0 0 0 0 0 0 0 0 0 -88 -177 -212 -245 -207 -179 -160 -178 -166 -102 -41 -37 -81 -69 -10 -41 -31 -75
-2 -7 -47 0 -6 -4 -2 -4 -9 -4 -1 -7 -0 0 -16 0 0 0 0 0 0 0 0 0 -131 -109 -245 -236 -281 -289 -278 -277 -299 -283 -288 -256 -251 -246 -260 -244 -189 -197 -196 -204
-2 -2 -6 -4 -6 -6 -6 -1 -30 -18 -10 -8 -4 0 0 0 0 0 -96 -245 -210 -402 -375 -206 -420 -373 -328 -303 -264 -225 -222 -291 -339 -369 -222 0 0 0 0 0 0 0 0 0
0 -0 -3 -8 -3 -6 -11 -7 -16 -13 -14 -8 -10 -7 -17 0 0 -94 -1 0 0 0 0 0 0 0 -344 -288 -294 -333 -423 -152 0 0 0 0 0 0 0 0 0 0 0 0
0 0 0 0 -1 -17 -12 -10 -13 -13 -8 -8 -14 -19 -5 -4 -52 0 0 0 0 0 0 0 0 -392 -331 -21 0 0 0 0 0 0 0 0 0 0 0 0 0 0 0 0
0 0 0 -1 -23 -41 -0 -6 -5 -5 -13 -15 -14 -4 -9 0 0 0 0 0 0 0 0 0 0 -0 -1 0 0 0 0 0 0 0 0 0 0 0 0 0 0 0 0 0
0 -0 0 -5 0 0 -3 -10 -7 -9 -11 -8 -7 -107 -17 0 0 0 0 0 0 0 0 0 0 0 0 0 0 0 0 0 0 0 0 0 0 0 0 0 0 0 0 0
0 0 -21 -3 0 0 -27 -6 -8 -12 -19 -22 -11 -81 -84 0 0 0 0 0 0 -0 -1 -1 -1 0 0 0 0 0 0 0 0 0 0 0 0 0 0 0 0 0 0 0
0 0 0 -1 -7 -1 -32 -8 -3 -3 0 -8 -3 -13 -119 0 0 0 0 0 -0 -0 0 0 0 0 0 0 0 0 0 0 0 0 0 0 0 0 0 0 0 0 0 0
0 0 -6 -1 -3 -0 0 -65 -10 -3 -12 -3 -1 -88 0 0 0 0 0 0 -0 -0 -1 0 0 0 0 0 0 0 0 0 0 0 0 0 0 0 0 0 0 0 -1 -1
0 0 0 -0 -0 -0 -0 -11 -10 -2 -11 -4 -40 -29 0 0 0 0 0 0 -0 -1 0 0 0 0 0 0 0 0 0 0 0 0 0 0 0 0 0 0 -1 -1 -1 -1
0 0 0 0 -41 -4 -2 -2 -0 -1 -5 -7 -1 0 0 0 0 0 -0 0 0 0 0 0 0 0 0 0 0 0 0 0 0 0 0 0 0 0 -0 -0 -1 -1 -1 -1
0 0 0 -4 -5 -9 -1 -4 -1 -3 -0 -4 -28 0 0 0 0 0 0 0 0 0 0 0 0 0 0 0 0 0 0 0 0 0 0 0 0 0 -1 -0 -1 -0 -0 -0
0 0 -11 -5 -1 -0 -1 -12 -8 -4 -7 -28 0 0 -1 -3 0 0 0 0 0 0 0 0 0 0 0 0 0 0 0 0 0 0 0 0 -0 -1 -1 -0 -1 -0 -0 -0
-0 -0 -3 -1 -0 -0 -23 -23 -4 -25 -140 0 0 0 0 0 0 0 0 0 0 0 0 0 0 0 0 0 0 0 0 -0 0 0 -1 -1 -1 -0 -0 -0 -0 -0 -0 -0
-0 -0 -0 0 0 -0 -15 -13 -20 -110 0 0 0 0 0 0 0 0 0 0 0 0 0 0 0 0 0 0 0 0 -0 -0 -1 -1 -1 -2 -1 -1 -1 -1 -0 -0 -0 0
-0 -0 0 0 0 0 -24 -42 -27 -0 0 0 0 0 0 0 0 0 0 0 0 0 0 0 0 0 0 0 0 0 -0 -1 -1 -0 -0 -0 -1 -1 -0 -0 -0 -0 -0 0
0 0 0 0 0 0 0 0 -0 -0 0 0 0 0 0 0 0 0 0 0 0 0 0 0 0 0 0 0 0 0 -0 -0 -1 -0 -0 -1 0 -0 -0 -0 0 -0 -0 0
0 0 0 0 0 0 0 0 0 0 0 -0 0 0 0 0 0 0 0 0 0 0 0 0 0 0 0 0 0 0 0 -1 -1 -0 -0 0 0 -0 -1 -0 -0 0 0 -0
Wind_Speed
34 42 51 44 42 43 36 46 44 39 34 38 42 42 37 30 27 28 31 25 23 24 19 16 13 13 13 14 14 14 13 12 11 11 12 13 14 15 15 15 17 18 17 17
32 51 48 43 42 45 48 44 43 39 34 35 36 43 43 36 35 28 25 27 26 23 20 19 18 14 13 11 11 11 11 11 11 12 12 14 15 15 16 16 18 19 19 19
38 38 39 42 44 45 47 48 40 39 35 38 38 45 41 37 35 33 32 29 24 22 21 21 20 17 14 13 10 9 9 9 10 10 10 11 11 13 15 18 18 17 18 18
42 41 38 39 45 41 49 43 38 35 31 39 32 40 37 37 34 33 31 31 29 24 24 21 19 18 16 13 13 12 11 10 10 7 8 10 12 16 17 17 16 17 15 15
36 38 43 41 44 40 47 36 43 40 41 37 31 38 31 28 33 30 30 29 28 24 20 20 18 17 17 16 14 12 10 10 9 9 10 11 14 16 16 16 16 15 15 14
28 27 31 46 36 37 31 34 37 38 39 46 42 37 36 31 30 28 25 27 25 23 20 17 15 16 17 14 13 11 10 9 8 7 9 10 11 13 14 15 16 14 14 14
26 31 33 34 41 35 33 33 37 42 44 49 40 39 34 26 23 25 22 24 25 23 20 17 15 14 13 11 12 10 8 8 6 7 7 8 9 10 12 14 14 14 12 13
23 22 23 27 36 37 38 37 41 45 47 45 29 44 34 20 18 20 19 21 22 21 18 15 13 11 9 8 8 7 6 5 3 4 5 7 8 10 11 14 14 14 14 15
21 22 6 17 25 28 35 42 35 31 37 34 31 26 26 23 21 17 16 14 13 13 12 11 9 7 6 5 5 4 4 2 1 2 4 6 8 8 11 13 14 14 16 16
24 26 12 8 20 24 30 32 40 31 39 42 34 32 27 28 21 16 13 12 11 9 8 7 6 6 5 4 4 3 3 1 2 2 4 6 7 9 11 13 14 16 17 19
27 26 12 11 23 26 27 34 33 30 29 35 33 27 15 21 19 16 12 10 9 9 8 7 6 6 5 5 5 5 4 4 4 4 6 7 8 8 11 13 16 18 20 22
27 28 26 33 23 39 28 26 32 31 28 32 25 22 16 15 14 11 10 10 8 8 8 8 8 9 9 9 8 6 4 5 6 7 8 10 10 10 12 15 18 21 22 26
22 26 23 24 33 34 34 37 44 27 24 26 25 22 13 13 12 10 11 10 10 9 9 8 7 7 8 7 6 5 5 5 7 8 10 12 13 15 17 22 24 26 27 29
17 23 27 34 42 40 40 46 53 35 27 24 24 17 17 16 14 12 11 11 11 11 11 10 9 9 8 7 6 5 6 8 9 11 13 15 17 20 22 20 21 24 26 28
12 20 21 23 13 29 40 46 54 43 34 22 18 17 22 16 15 13 13 13 13 12 10 8 8 7 5 4 5 7 9 10 12 14 16 19 20 21 21 21 24 26 28 30
8 15 14 20 17 26 36 47 47 40 29 23 14 16 19 16 15 15 14 13 12 10 9 7 6 6 5 5 6 9 11 12 14 17 19 20 21 22 23 26 27 27 28 28
13 11 15 18 9 19 30 44 39 34 36 22 15 18 19 18 17 15 13 12 11 10 8 6 3 3 5 7 9 10 11 13 15 17 19 20 22 24 26 28 28 28 28 29
16 12 14 14 15 24 22 41 23 33 22 9 10 17 18 18 14 14 12 12 10 7 6 4 4 5 7 8 9 10 12 14 16 19 22 24 25 27 28 28 29 29 29 29
21 15 13 20 15 11 18 34 43 38 22 11 17 17 18 17 16 10 9 7 6 5 4 3 2 5 6 9 11 12 13 16 19 22 24 25 26 27 28 28 28 28 29 29
14 17 18 23 12 18 23 14 30 23 25 11 16 19 23 19 17 14 7 6 6 5 3 2 4 6 8 10 11 12 15 18 21 24 25 25 26 26 27 28 28 29 29 29
15 17 14 12 14 13 9 17 31 35 26 11 13 13 15 19 18 11 10 8 5 4 4 5 7 8 10 11 12 15 18 21 23 24 25 26 26 25 26 26 26 27 28 29
22 18 12 14 11 17 15 22 23 13 13 14 14 12 12 14 16 11 8 7 5 4 5 7 8 10 11 13 15 17 20 22 23 24 24 25 25 25 25 26 26 27 29 30
20 16 15 10 13 18 20 17 7 16 19 13 17 15 18 17 15 12 9 6 5 4 5 7 9 12 14 16 18 19 22 22 23 23 23 24 25 25 25 26 27 26 28 29
14 12 16 15 8 9 13 14 9 9 11 14 15 18 20 21 19 15 9 6 4 5 7 10 12 14 15 17 19 21 22 22 22 23 24 24 25 25 26 25 26 26 27 27
12 15 16 12 11 7 10 11 8 12 15 15 14 14 17 21 16 13 9 6 6 7 9 11 14 15 17 19 20 22 22 22 22 23 23 23 24 24 24 24 26 25 26 26
10 17 20 19 15 12 13 13 14 17 17 15 19 18 13 16 16 12 9 7 8 9 11 14 15 16 17 19 21 22 23 23 23 23 24 23 22 23 23 24 23 24 24 24
Wind_Direction
247 246 244 242 244 253 262 254 255 255 253 254 253 254 255 257 262 255 254 255 251 245 244 245 244 244 245 242 241 240 244 252 253 258 266 278 284 291 295 299 302 302 301 300
250 248 250 251 250 249 250 255 254 258 254 255 256 254 253 253 253 256 255 252 252 249 239 241 248 245 242 239 240 240 241 246 249 261 272 283 287 293 297 301 302 302 302 303
250 259 252 245 244 245 246 244 251 252 256 255 259 255 254 254 253 252 253 255 253 247 235 240 244 243 242 243 233 226 225 242 251 268 276 288 294 302 300 303 304 307 308 306
256 254 259 244 242 241 243 241 245 248 252 251 249 258 251 249 250 246 249 249 249 247 245 240 241 241 246 247 249 249 247 255 258 258 275 282 290 297 304 307 310 310 309 311
254 253 248 245 240 240 245 241 241 246 251 254 249 252 257 247 244 244 243 245 246 246 242 238 237 242 248 251 252 250 249 258 260 265 283 289 295 305 311 312 313 311 313 313
269 270 257 243 243 240 242 242 238 242 245 244 244 246 250 246 246 245 243 243 242 244 243 239 238 243 249 251 248 248 250 258 259 270 288 295 306 313 317 318 315 315 314 315
272 266 255 253 233 232 231 228 230 233 235 240 241 244 251 248 248 249 243 241 242 242 242 240 237 237 240 245 248 246 240 248 258 280 295 304 317 324 326 326 325 326 326 324
273 268 256 242 232 227 223 220 226 230 229 235 254 239 241 252 252 255 252 250 248 246 240 233 226 224 225 236 232 230 224 234 260 298 319 330 332 332 336 337 338 333 331 324
269 275 278 232 228 217 216 221 227 243 234 238 236 248 243 240 245 250 243 236 236 233 219 205 198 208 215 200 198 199 201 219 270 321 336 346 350 352 349 346 343 340 330 321
255 253 278 206 218 222 219 220 225 239 225 232 233 239 247 229 230 234 226 230 227 220 193 186 187 182 174 167 162 150 135 131 77 45 21 12 12 3 356 351 342 335 325 316
252 236 267 161 227 215 209 218 223 232 232 227 229 234 245 215 219 220 219 211 204 190 173 164 157 149 143 126 117 109 96 78 47 29 10 360 353 345 336 339 338 323 317 312
209 183 179 171 236 209 224 214 217 226 224 232 238 234 246 217 212 204 192 184 172 163 149 140 135 124 116 110 100 87 63 39 21 17 360 346 354 344 339 328 320 315 317 306
207 182 163 208 218 213 221 217 215 224 236 231 228 230 228 205 198 187 171 165 154 141 139 139 139 133 118 103 86 58 25 12 4 348 343 340 341 337 339 316 311 305 307 306
156 210 185 181 180 164 170 182 200 216 229 227 244 219 207 198 187 177 161 151 142 134 126 122 119 115 107 89 65 34 14 1 350 345 340 338 336 334 338 334 318 311 314 313
283 202 202 201 194 160 170 175 186 211 215 234 228 209 201 189 178 169 155 143 137 136 131 128 120 110 94 67 30 8 360 353 346 344 339 333 330 333 338 329 320 314 313 313
240 197 205 192 204 149 159 181 191 201 220 235 202 195 191 184 174 164 157 151 145 141 137 130 113 89 58 32 7 3 348 337 344 341 337 329 324 331 333 320 318 320 320 321
214 228 216 208 155 199 206 184 188 203 198 214 194 191 170 173 172 174 165 158 150 147 137 126 101 42 18 356 356 355 341 341 345 351 346 338 331 329 326 323 325 326 325 325
182 211 200 170 171 195 199 186 155 196 206 210 142 161 168 160 152 152 156 149 144 137 123 100 67 32 7 4 5 357 346 349 341 337 335 333 331 331 331 330 328 328 330 330
167 181 185 185 194 130 192 181 153 191 197 187 134 147 150 145 141 169 171 151 126 117 97 78 47 27 13 1 354 352 346 339 336 337 339 339 339 338 337 337 337 338 335 334
194 196 187 180 194 192 183 195 193 196 202 168 164 125 132 156 152 183 157 134 132 150 155 73 20 7 356 346 343 333 336 339 340 350 348 347 345 345 344 343 341 341 340 337
203 195 204 211 210 203 219 205 180 194 211 161 170 166 157 189 189 147 165 161 121 104 63 30 13 3 354 334 329 340 345 344 346 349 350 349 349 351 351 353 354 352 350 349
172 206 225 214 210 204 215 197 200 207 155 145 157 166 141 125 118 126 150 128 115 79 40 19 13 2 340 333 340 342 346 345 347 348 349 351 355 359 360 357 358 358 354 350
191 212 213 234 221 210 205 197 122 176 116 145 137 120 116 120 116 113 119 109 75 43 23 8 4 6 1 353 346 345 345 347 350 357 359 360 357 360 2 1 0 1 360 357
209 222 202 202 214 188 183 172 144 135 122 132 130 115 114 112 109 106 100 93 73 35 24 20 14 4 359 354 354 353 353 357 360 359 357 358 2 4 4 5 5 6 358 0
209 208 194 186 181 159 173 173 128 129 122 125 120 125 115 109 107 103 98 79 51 28 16 12 12 8 5 0 358 358 1 3 5 6 5 4 5 8 7 10 8 8 9 6
226 195 192 189 202 181 176 166 143 125 112 113 109 102 137 105 101 94 76 56 39 25 19 21 13 7 9 9 5 0 2 7 8 7 6 2 5 7 7 6 9 10 7 9